Location: Endfield
(51.6667°N, 0.0667°W)
Time: 02:47:57
(UTC+00:00)

Cosmos 1340 Rocket - Pass Details

Date: 19 May 2024
Orbit: 506 x 543 km, 81.2° (Epoch: 21 June)

Event Time Altitude Azimuth Distance (km) Brightness Sun altitude
Exits shadow 22:18:18 29° 155° (SSE) 1,030 3.6 -15.1°
Maximum altitude 22:20:01 48° 97° (E) 718 3.2 -15.2°
Drops below altitude 10° 22:23:53 10° 23° (NNE) 1,824 6.1 -15.5°
Sets 22:26:06 0° 17° (NNE) 2,719 7.2 -15.6°
